TAP247 LPPT-KLAX

Flight info

Callsign TAP247
Flight time N/A
Altitude 36000
Route ELNUB DCT DETOX/M081F360 DCT 44N020W 4630N03000W 4930N04000W 4930N05000W DCT IBERG/N0463F360 DCT SATIP/N0466F380 Q907 MIILS DCT ROSVO DCT SSM J140 DLH J32 ABR/N0471F400 J158 DDY J107 BLD DCT HAKMN ANJLL4
Aircraft A339/H-SADE1E2E3GHIJ1J3J5M1P2RWXYZ/LB2D1

Departure

Time N/A
Airport Lisbon Humberto Delgado Airport (LPPT)

Arrival

Time 2026-05-01 13:07
Airport Los Angeles International Airport (KLAX)
Time Latitude Longitude Altitude Speed Heading
2026-05-01 07:23 47.05678 -65.54568 35877 ft 453 kts 256°
2026-05-01 07:24 47.04099 -65.68223 35871 ft 453 kts 256°
2026-05-01 07:24 47.03039 -65.77318 35867 ft 453 kts 256°
2026-05-01 07:25 47.01971 -65.86411 35868 ft 452 kts 256°
2026-05-01 07:25 47.00897 -65.95492 35869 ft 452 kts 256°
2026-05-01 07:26 46.99816 -66.04568 35862 ft 452 kts 255°
2026-05-01 07:26 46.98728 -66.13638 35857 ft 452 kts 255°
2026-05-01 07:27 46.97632 -66.22705 35851 ft 452 kts 255°
2026-05-01 07:27 46.96527 -66.31777 35845 ft 453 kts 255°
2026-05-01 07:28 46.95423 -66.40788 35839 ft 453 kts 255°
2026-05-01 07:28 46.94304 -66.49872 35834 ft 454 kts 255°
2026-05-01 07:29 46.93176 -66.58955 35828 ft 454 kts 255°
2026-05-01 07:29 46.92040 -66.68045 35823 ft 454 kts 255°
2026-05-01 07:30 46.90897 -66.77128 35811 ft 454 kts 255°
2026-05-01 07:30 46.89747 -66.86212 35810 ft 454 kts 255°
2026-05-01 07:31 46.88594 -66.95302 35804 ft 455 kts 255°
2026-05-01 07:32 46.86234 -67.18260 35791 ft 460 kts 259°
2026-05-01 07:33 46.85238 -67.32213 35785 ft 460 kts 258°
2026-05-01 07:33 46.84160 -67.46148 35781 ft 461 kts 258°
2026-05-01 07:34 46.83065 -67.60038 35786 ft 461 kts 258°
2026-05-01 07:35 46.82314 -67.69406 35780 ft 461 kts 258°
2026-05-01 07:35 46.81562 -67.78647 35768 ft 462 kts 258°
2026-05-01 07:36 46.80796 -67.87954 35764 ft 462 kts 258°
2026-05-01 07:36 46.80022 -67.97256 35759 ft 462 kts 258°
2026-05-01 07:37 46.78847 -68.11216 35762 ft 462 kts 257°
2026-05-01 07:37 46.78054 -68.20522 35773 ft 462 kts 257°
2026-05-01 07:38 46.77253 -68.29827 35772 ft 462 kts 257°
2026-05-01 07:39 46.76036 -68.43784 35769 ft 462 kts 257°
2026-05-01 07:39 46.74808 -68.57684 35775 ft 463 kts 257°
2026-05-01 07:40 46.73977 -68.66979 35775 ft 463 kts 257°
2026-05-01 07:40 46.73138 -68.76286 35773 ft 463 kts 257°
2026-05-01 07:41 46.72290 -68.85586 35769 ft 463 kts 257°
2026-05-01 07:42 46.71005 -68.99536 35774 ft 463 kts 257°
2026-05-01 07:42 46.70137 -69.08839 35769 ft 463 kts 257°
2026-05-01 07:43 46.69262 -69.18143 35770 ft 464 kts 257°
2026-05-01 07:43 46.67936 -69.32090 35768 ft 463 kts 257°
2026-05-01 07:44 46.66141 -69.50675 35768 ft 464 kts 256°
2026-05-01 07:45 46.65231 -69.59974 35766 ft 464 kts 256°
2026-05-01 07:45 46.64314 -69.69264 35780 ft 464 kts 256°
2026-05-01 07:46 46.63390 -69.78557 35768 ft 464 kts 256°
2026-05-01 07:47 46.61994 -69.92428 35773 ft 464 kts 256°
2026-05-01 07:47 46.61050 -70.01718 35776 ft 464 kts 256°
2026-05-01 07:48 46.59619 -70.15653 35788 ft 465 kts 256°
2026-05-01 07:48 46.58656 -70.24934 35793 ft 465 kts 256°
2026-05-01 07:49 46.57196 -70.38868 35792 ft 465 kts 256°
2026-05-01 07:50 46.56212 -70.48158 35797 ft 465 kts 256°
2026-05-01 07:50 46.54724 -70.62076 35804 ft 465 kts 256°
2026-05-01 07:51 46.53723 -70.71354 35813 ft 465 kts 256°
2026-05-01 07:52 46.52206 -70.85261 35812 ft 465 kts 256°
2026-05-01 07:52 46.51187 -70.94522 35816 ft 465 kts 256°
2026-05-01 07:53 46.49642 -71.08417 35816 ft 465 kts 256°
2026-05-01 07:53 46.48603 -71.17680 35820 ft 465 kts 256°
2026-05-01 07:55 46.45980 -71.40745 35828 ft 465 kts 256°
2026-05-01 07:56 46.43303 -71.63850 35846 ft 465 kts 256°
2026-05-01 07:57 46.41675 -71.77711 35852 ft 465 kts 256°
2026-05-01 07:58 46.39477 -71.96180 35858 ft 465 kts 255°
2026-05-01 07:59 46.37249 -72.14636 35860 ft 465 kts 255°
2026-05-01 08:00 46.33848 -72.42313 35870 ft 466 kts 255°
2026-05-01 08:01 46.31542 -72.60766 35877 ft 466 kts 255°
2026-05-01 08:02 46.29799 -72.74541 35878 ft 467 kts 255°
2026-05-01 08:03 46.28032 -72.88374 35880 ft 467 kts 255°
2026-05-01 08:03 46.26246 -73.02207 35887 ft 467 kts 255°
2026-05-01 08:04 46.23840 -73.20631 35905 ft 467 kts 255°
2026-05-01 08:05 46.22015 -73.34452 35912 ft 467 kts 255°
2026-05-01 08:06 46.20382 -73.46701 35905 ft 467 kts 255°
2026-05-01 08:07 46.17903 -73.65101 35909 ft 467 kts 255°
2026-05-01 08:08 46.16025 -73.78880 35912 ft 467 kts 255°
2026-05-01 08:09 46.13497 -73.97232 35924 ft 466 kts 255°
2026-05-01 08:09 46.12223 -74.06394 35924 ft 466 kts 255°
2026-05-01 08:10 46.09650 -74.24718 35928 ft 466 kts 255°
2026-05-01 08:11 46.07061 -74.42951 35937 ft 466 kts 255°
2026-05-01 08:12 46.05094 -74.56647 35939 ft 466 kts 255°
2026-05-01 08:13 46.03110 -74.70338 35937 ft 466 kts 255°
2026-05-01 08:13 46.01111 -74.84012 35944 ft 465 kts 255°
2026-05-01 08:14 45.99769 -74.93122 35945 ft 465 kts 255°
2026-05-01 08:14 45.98424 -75.02211 35944 ft 465 kts 255°
2026-05-01 08:15 45.96391 -75.15831 35946 ft 464 kts 255°
2026-05-01 08:16 45.95028 -75.24899 35946 ft 464 kts 255°
2026-05-01 08:16 45.93659 -75.33953 35944 ft 464 kts 255°
2026-05-01 08:17 45.92283 -75.43008 35945 ft 464 kts 255°
2026-05-01 08:17 45.90911 -75.51984 35946 ft 463 kts 255°
2026-05-01 08:18 45.89523 -75.61018 35943 ft 463 kts 255°
2026-05-01 08:19 45.86726 -75.79050 35948 ft 463 kts 255°
2026-05-01 08:19 45.85319 -75.88051 35955 ft 462 kts 255°
2026-05-01 08:20 45.83906 -75.97041 35957 ft 462 kts 255°
2026-05-01 08:20 45.82487 -76.06019 35958 ft 462 kts 255°
2026-05-01 08:21 45.81059 -76.14996 35964 ft 462 kts 255°
2026-05-01 08:21 45.79625 -76.23975 35963 ft 462 kts 255°
2026-05-01 08:22 45.78187 -76.32927 35967 ft 461 kts 255°
2026-05-01 08:22 45.76740 -76.41882 35966 ft 461 kts 255°
2026-05-01 08:23 45.75288 -76.50821 35969 ft 461 kts 255°
2026-05-01 08:23 45.73831 -76.59751 35970 ft 461 kts 255°
2026-05-01 08:24 45.72376 -76.68617 35974 ft 460 kts 255°
2026-05-01 08:24 45.70906 -76.77525 35968 ft 460 kts 255°
2026-05-01 08:25 45.69429 -76.86430 35972 ft 460 kts 255°
2026-05-01 08:25 45.67947 -76.95322 35971 ft 460 kts 255°
2026-05-01 08:26 45.66460 -77.04203 35984 ft 459 kts 255°
2026-05-01 08:26 45.64970 -77.13075 35979 ft 459 kts 255°
2026-05-01 08:27 45.63475 -77.21946 35983 ft 459 kts 255°
2026-05-01 08:27 45.61975 -77.30804 35985 ft 459 kts 255°
2026-05-01 08:28 45.60469 -77.39655 35990 ft 458 kts 255°
2026-05-01 08:28 45.59682 -77.48688 35986 ft 462 kts 269°
2026-05-01 08:29 45.60489 -77.57816 35986 ft 466 kts 280°
2026-05-01 08:29 45.61870 -77.66850 35990 ft 466 kts 279°
2026-05-01 08:30 45.63237 -77.75900 35991 ft 466 kts 279°
2026-05-01 08:30 45.64594 -77.84954 35991 ft 466 kts 279°
2026-05-01 08:31 45.65931 -77.93956 35990 ft 466 kts 279°
2026-05-01 08:31 45.67268 -78.03016 35993 ft 466 kts 279°
2026-05-01 08:32 45.68595 -78.12076 35992 ft 465 kts 279°
2026-05-01 08:32 45.69914 -78.21137 35999 ft 465 kts 279°
2026-05-01 08:33 45.71226 -78.30203 35994 ft 465 kts 279°
2026-05-01 08:33 45.72530 -78.39262 35995 ft 465 kts 279°
2026-05-01 08:34 45.73828 -78.48330 35995 ft 465 kts 279°
2026-05-01 08:34 45.75117 -78.57400 35995 ft 465 kts 279°
2026-05-01 08:35 45.76401 -78.66476 35995 ft 465 kts 279°
2026-05-01 08:35 45.77675 -78.75551 35994 ft 465 kts 279°
2026-05-01 08:36 45.78942 -78.84625 35997 ft 465 kts 279°
2026-05-01 08:36 45.80203 -78.93708 35997 ft 465 kts 279°
2026-05-01 08:37 45.81456 -79.02793 35996 ft 465 kts 279°
2026-05-01 08:37 45.82702 -79.11879 35993 ft 464 kts 279°
2026-05-01 08:38 45.83938 -79.20962 35994 ft 464 kts 279°
2026-05-01 08:38 45.85169 -79.30055 35997 ft 464 kts 279°
2026-05-01 08:39 45.86393 -79.39151 35997 ft 464 kts 279°
2026-05-01 08:39 45.87601 -79.48188 35996 ft 464 kts 279°
2026-05-01 08:40 45.89410 -79.61837 35993 ft 464 kts 279°
2026-05-01 08:40 45.90608 -79.70942 35992 ft 464 kts 279°
2026-05-01 08:41 45.91798 -79.80051 35988 ft 464 kts 279°
2026-05-01 08:41 45.92982 -79.89166 35986 ft 464 kts 279°
2026-05-01 08:42 45.94158 -79.98285 35986 ft 464 kts 279°
2026-05-01 08:42 45.95327 -80.07412 35988 ft 464 kts 279°
2026-05-01 08:43 45.96489 -80.16541 35986 ft 464 kts 279°
2026-05-01 08:43 45.97644 -80.25674 35971 ft 464 kts 279°
2026-05-01 08:44 45.98793 -80.34818 35990 ft 464 kts 279°
2026-05-01 08:44 45.99932 -80.43956 35989 ft 465 kts 279°
2026-05-01 08:45 46.01066 -80.53111 35977 ft 465 kts 278°
2026-05-01 08:45 46.02193 -80.62269 35982 ft 465 kts 278°
2026-05-01 08:46 46.03312 -80.71423 35994 ft 465 kts 278°
2026-05-01 08:46 46.04424 -80.80587 35989 ft 465 kts 278°
2026-05-01 08:47 46.05528 -80.89751 35988 ft 465 kts 278°
2026-05-01 08:47 46.06626 -80.98923 35982 ft 465 kts 278°
2026-05-01 08:48 46.07716 -81.08098 35989 ft 465 kts 278°
2026-05-01 08:48 46.08791 -81.17217 35990 ft 465 kts 278°
2026-05-01 08:49 46.09867 -81.26402 35987 ft 465 kts 278°
2026-05-01 08:49 46.10935 -81.35594 35993 ft 465 kts 278°
2026-05-01 08:50 46.11997 -81.44795 35986 ft 465 kts 278°
2026-05-01 08:50 46.13051 -81.53989 35990 ft 465 kts 278°
2026-05-01 08:51 46.14099 -81.63198 35993 ft 465 kts 278°
2026-05-01 08:51 46.15138 -81.72403 35989 ft 465 kts 278°
2026-05-01 08:52 46.16170 -81.81615 35991 ft 465 kts 278°
2026-05-01 08:52 46.17194 -81.90830 35998 ft 465 kts 278°
2026-05-01 08:53 46.18211 -82.00043 36003 ft 465 kts 278°
2026-05-01 08:53 46.19221 -82.09267 36004 ft 465 kts 278°
2026-05-01 08:54 46.20223 -82.18492 36005 ft 465 kts 278°
2026-05-01 08:54 46.21219 -82.27723 36000 ft 465 kts 278°
2026-05-01 08:55 46.22200 -82.36895 36003 ft 465 kts 278°
2026-05-01 08:55 46.23181 -82.46139 36008 ft 466 kts 278°
2026-05-01 08:56 46.24155 -82.55389 36011 ft 466 kts 278°
2026-05-01 08:56 46.25122 -82.64642 36016 ft 466 kts 278°
2026-05-01 08:57 46.26081 -82.73900 36015 ft 466 kts 278°
2026-05-01 08:57 46.27032 -82.83159 36021 ft 466 kts 278°
2026-05-01 08:58 46.27977 -82.92427 36017 ft 466 kts 278°
2026-05-01 08:58 46.28914 -83.01698 36020 ft 466 kts 278°
2026-05-01 08:59 46.29687 -83.09409 36027 ft 466 kts 278°
2026-05-01 08:59 46.30612 -83.18698 36022 ft 467 kts 278°
2026-05-01 09:00 46.31677 -83.29499 36024 ft 467 kts 278°
2026-05-01 09:00 46.32439 -83.37292 36025 ft 467 kts 278°
2026-05-01 09:01 46.33342 -83.46597 36032 ft 467 kts 277°
2026-05-01 09:01 46.34236 -83.55902 36029 ft 467 kts 277°
2026-05-01 09:02 46.35118 -83.65155 36031 ft 467 kts 277°
2026-05-01 09:02 46.35998 -83.74473 36029 ft 467 kts 277°
2026-05-01 09:03 46.36871 -83.83791 36034 ft 467 kts 277°
2026-05-01 09:03 46.37736 -83.93117 36032 ft 467 kts 277°
2026-05-01 09:04 46.38595 -84.02447 36027 ft 467 kts 277°
2026-05-01 09:04 46.39449 -84.11774 36030 ft 467 kts 277°
2026-05-01 09:05 46.40298 -84.21102 36026 ft 467 kts 277°
2026-05-01 09:05 46.41136 -84.30435 36015 ft 467 kts 277°
2026-05-01 09:06 46.41839 -84.39791 36014 ft 467 kts 277°
2026-05-01 09:06 46.42643 -84.49126 36029 ft 467 kts 277°
2026-05-01 09:07 46.43439 -84.58470 36028 ft 467 kts 277°
2026-05-01 09:07 46.44212 -84.67826 36032 ft 467 kts 277°
2026-05-01 09:08 46.44974 -84.77175 36043 ft 467 kts 277°
2026-05-01 09:08 46.45724 -84.86535 36051 ft 467 kts 277°
2026-05-01 09:09 46.46465 -84.95904 36059 ft 468 kts 277°
2026-05-01 09:09 46.47198 -85.05278 36063 ft 468 kts 277°
2026-05-01 09:10 46.47923 -85.14657 36062 ft 468 kts 276°
2026-05-01 09:10 46.48641 -85.24041 36056 ft 468 kts 276°
2026-05-01 09:11 46.49347 -85.33361 36057 ft 468 kts 276°
2026-05-01 09:11 46.50049 -85.42749 36048 ft 468 kts 276°
2026-05-01 09:12 46.50744 -85.52135 36061 ft 468 kts 276°
2026-05-01 09:12 46.51431 -85.61525 36061 ft 468 kts 276°
2026-05-01 09:13 46.52111 -85.70916 36076 ft 468 kts 276°
2026-05-01 09:13 46.52782 -85.80307 36077 ft 468 kts 276°
2026-05-01 09:14 46.53446 -85.89705 36087 ft 468 kts 276°
2026-05-01 09:14 46.54103 -85.99101 36088 ft 468 kts 276°
2026-05-01 09:15 46.54752 -86.08501 36090 ft 468 kts 276°
2026-05-01 09:15 46.55393 -86.17910 36094 ft 468 kts 276°
2026-05-01 09:16 46.56026 -86.27313 36086 ft 468 kts 276°
2026-05-01 09:17 46.56961 -86.41423 36089 ft 468 kts 276°
2026-05-01 09:17 46.57879 -86.55540 36091 ft 467 kts 276°
2026-05-01 09:18 46.58775 -86.69584 36088 ft 467 kts 276°
2026-05-01 09:19 46.59658 -86.83701 36106 ft 467 kts 276°
2026-05-01 09:20 46.60523 -86.97817 36103 ft 467 kts 276°
2026-05-01 09:21 46.61650 -87.16653 36103 ft 467 kts 276°
2026-05-01 09:21 46.62475 -87.30784 36099 ft 467 kts 276°
2026-05-01 09:22 46.63544 -87.49569 36105 ft 468 kts 276°
2026-05-01 09:23 46.64329 -87.63717 36122 ft 468 kts 276°
2026-05-01 09:24 46.65096 -87.77870 36129 ft 468 kts 276°
2026-05-01 09:25 46.66091 -87.96743 36126 ft 468 kts 276°
2026-05-01 09:26 46.66818 -88.10902 36123 ft 468 kts 276°
2026-05-01 09:26 46.67527 -88.25058 36112 ft 467 kts 276°
2026-05-01 09:27 46.68219 -88.39225 36113 ft 468 kts 275°
2026-05-01 09:28 46.68670 -88.48669 36115 ft 468 kts 275°
2026-05-01 09:28 46.68941 -88.54419 36108 ft 468 kts 275°
2026-05-01 09:29 46.69566 -88.67933 36116 ft 467 kts 275°
2026-05-01 09:30 46.70205 -88.82136 36407 ft 469 kts 275°
2026-05-01 09:30 46.70415 -88.86871 36588 ft 469 kts 275°
2026-05-01 09:30 46.70828 -88.96355 36921 ft 470 kts 275°
2026-05-01 09:31 46.71033 -89.01107 37093 ft 470 kts 275°
2026-05-01 09:31 46.71235 -89.05860 37256 ft 470 kts 275°
2026-05-01 09:31 46.71633 -89.15366 37596 ft 470 kts 275°
2026-05-01 09:32 46.71829 -89.20120 37736 ft 471 kts 275°
2026-05-01 09:32 46.72217 -89.29647 38075 ft 471 kts 275°
2026-05-01 09:32 46.72408 -89.34417 38123 ft 471 kts 274°
2026-05-01 09:33 46.72783 -89.43930 38119 ft 470 kts 274°
2026-05-01 09:34 46.73330 -89.58184 38121 ft 470 kts 274°
2026-05-01 09:34 46.73859 -89.72449 38127 ft 470 kts 274°
2026-05-01 09:35 46.74370 -89.86702 38125 ft 470 kts 274°
2026-05-01 09:36 46.74702 -89.96209 38121 ft 469 kts 274°
2026-05-01 09:36 46.75024 -90.05710 38119 ft 469 kts 274°
2026-05-01 09:37 46.75340 -90.15209 38121 ft 469 kts 274°
2026-05-01 09:37 46.75798 -90.29465 38120 ft 469 kts 274°
2026-05-01 09:38 46.76238 -90.43726 38130 ft 469 kts 274°
2026-05-01 09:39 46.76659 -90.57928 38137 ft 469 kts 274°
2026-05-01 09:39 46.76932 -90.67447 38138 ft 470 kts 274°
2026-05-01 09:40 46.77325 -90.81715 38137 ft 469 kts 274°
2026-05-01 09:41 46.77577 -90.91232 38136 ft 469 kts 274°
2026-05-01 09:41 46.77941 -91.05506 38140 ft 469 kts 273°
2026-05-01 09:42 46.78174 -91.15025 38146 ft 470 kts 273°
2026-05-01 09:43 46.78616 -91.34074 38152 ft 470 kts 273°
2026-05-01 09:43 46.78825 -91.43600 38155 ft 470 kts 273°
2026-05-01 09:44 46.79123 -91.57869 38147 ft 470 kts 273°
2026-05-01 09:45 46.79313 -91.67415 38144 ft 469 kts 273°
2026-05-01 09:45 46.79582 -91.81697 38155 ft 469 kts 273°
2026-05-01 09:46 46.79753 -91.91210 38153 ft 469 kts 273°
2026-05-01 09:46 46.79921 -92.00728 38144 ft 469 kts 273°
2026-05-01 09:47 46.80082 -92.10244 38121 ft 469 kts 273°
2026-05-01 09:47 46.79705 -92.19752 38110 ft 470 kts 265°
2026-05-01 09:48 46.78503 -92.29147 38117 ft 472 kts 257°
2026-05-01 09:48 46.76688 -92.38358 38117 ft 472 kts 256°
2026-05-01 09:49 46.75206 -92.46021 38117 ft 472 kts 256°
2026-05-01 09:49 46.73419 -92.55233 38116 ft 472 kts 256°
2026-05-01 09:50 46.71616 -92.64439 38125 ft 472 kts 256°
2026-05-01 09:50 46.69802 -92.73626 38133 ft 472 kts 256°
2026-05-01 09:51 46.67981 -92.82806 38142 ft 472 kts 256°
2026-05-01 09:51 46.66153 -92.91974 38159 ft 472 kts 256°
2026-05-01 09:52 46.64318 -93.01137 38149 ft 472 kts 256°
2026-05-01 09:52 46.62475 -93.10295 38140 ft 471 kts 256°
2026-05-01 09:53 46.60626 -93.19445 38136 ft 471 kts 256°
2026-05-01 09:53 46.58769 -93.28586 38132 ft 471 kts 256°
2026-05-01 09:54 46.56905 -93.37723 38137 ft 471 kts 256°
2026-05-01 09:54 46.55035 -93.46849 38143 ft 471 kts 256°
2026-05-01 09:55 46.53157 -93.55967 38144 ft 471 kts 255°
2026-05-01 09:55 46.51273 -93.65080 38145 ft 471 kts 255°
2026-05-01 09:56 46.49381 -93.74187 38147 ft 471 kts 255°
2026-05-01 09:56 46.47481 -93.83287 38148 ft 471 kts 255°
2026-05-01 09:57 46.45576 -93.92373 38136 ft 471 kts 255°
2026-05-01 09:57 46.43663 -94.01459 38125 ft 471 kts 255°
2026-05-01 09:58 46.41744 -94.10530 38129 ft 471 kts 255°
2026-05-01 09:58 46.39817 -94.19599 38128 ft 471 kts 255°
2026-05-01 09:59 46.37884 -94.28659 38128 ft 471 kts 255°
2026-05-01 09:59 46.35942 -94.37720 38136 ft 471 kts 255°
2026-05-01 10:00 46.33993 -94.46769 38146 ft 471 kts 255°
2026-05-01 10:00 46.32038 -94.55813 38140 ft 471 kts 255°
2026-05-01 10:01 46.30074 -94.64856 38137 ft 471 kts 255°
2026-05-01 10:01 46.28105 -94.73882 38138 ft 471 kts 255°
2026-05-01 10:02 46.26126 -94.82915 38141 ft 471 kts 255°
2026-05-01 10:02 46.24142 -94.91934 38142 ft 471 kts 255°
2026-05-01 10:03 46.22150 -95.00946 38149 ft 471 kts 255°
2026-05-01 10:03 46.20153 -95.09950 38156 ft 471 kts 254°
2026-05-01 10:04 46.18148 -95.18945 38158 ft 471 kts 254°
2026-05-01 10:04 46.16134 -95.27942 38169 ft 470 kts 254°
2026-05-01 10:05 46.14117 -95.36916 38158 ft 471 kts 254°
2026-05-01 10:05 46.12094 -95.45882 38151 ft 470 kts 254°
2026-05-01 10:06 46.10062 -95.54846 38149 ft 470 kts 254°
2026-05-01 10:06 46.08027 -95.63786 38158 ft 470 kts 254°
2026-05-01 10:07 46.05986 -95.72719 38167 ft 469 kts 254°
2026-05-01 10:07 46.03939 -95.81635 38170 ft 469 kts 254°
2026-05-01 10:08 46.00861 -95.94981 38173 ft 468 kts 254°
2026-05-01 10:09 45.98801 -96.03864 38177 ft 468 kts 254°
2026-05-01 10:09 45.96738 -96.12728 38173 ft 468 kts 254°
2026-05-01 10:10 45.94666 -96.21592 38176 ft 467 kts 253°
2026-05-01 10:10 45.91549 -96.34859 38185 ft 467 kts 253°
2026-05-01 10:11 45.89463 -96.43695 38182 ft 467 kts 253°
2026-05-01 10:11 45.87371 -96.52519 38180 ft 467 kts 253°
2026-05-01 10:12 45.85628 -96.59845 38182 ft 467 kts 253°
2026-05-01 10:13 45.82113 -96.74546 38181 ft 467 kts 253°
2026-05-01 10:13 45.79998 -96.83341 38184 ft 467 kts 253°
2026-05-01 10:14 45.76813 -96.96526 38195 ft 467 kts 253°
2026-05-01 10:14 45.74682 -97.05303 38196 ft 467 kts 253°
2026-05-01 10:15 45.72544 -97.14075 38196 ft 467 kts 253°
2026-05-01 10:15 45.70400 -97.22838 38196 ft 466 kts 253°
2026-05-01 10:16 45.68250 -97.31591 38195 ft 466 kts 253°
2026-05-01 10:17 45.65015 -97.44701 38189 ft 466 kts 253°
2026-05-01 10:17 45.61766 -97.57787 38186 ft 466 kts 253°
2026-05-01 10:18 45.58517 -97.70801 38191 ft 466 kts 253°
2026-05-01 10:19 45.56335 -97.79500 38192 ft 466 kts 253°
2026-05-01 10:19 45.54145 -97.88197 38198 ft 465 kts 252°
2026-05-01 10:20 45.50851 -98.01214 38202 ft 465 kts 252°
2026-05-01 10:20 45.48648 -98.09883 38202 ft 465 kts 252°
2026-05-01 10:21 45.45339 -98.22860 38193 ft 465 kts 252°
2026-05-01 10:22 45.42015 -98.35815 38193 ft 464 kts 252°
2026-05-01 10:23 45.38365 -98.48606 38238 ft 466 kts 251°
2026-05-01 10:23 45.35956 -98.57149 38595 ft 465 kts 251°
2026-05-01 10:23 45.34748 -98.61412 38774 ft 465 kts 251°
2026-05-01 10:24 45.32318 -98.69933 39078 ft 465 kts 250°
2026-05-01 10:24 45.29882 -98.78422 39370 ft 464 kts 250°
2026-05-01 10:25 45.27438 -98.86905 39649 ft 464 kts 250°
2026-05-01 10:25 45.24993 -98.95362 39914 ft 463 kts 250°
2026-05-01 10:26 45.23767 -98.99592 40044 ft 463 kts 250°
2026-05-01 10:26 45.22541 -99.03815 40174 ft 463 kts 250°
2026-05-01 10:27 45.17635 -99.20642 40212 ft 461 kts 250°
2026-05-01 10:28 45.13944 -99.33226 40214 ft 461 kts 250°
2026-05-01 10:28 45.10244 -99.45779 40220 ft 460 kts 250°
2026-05-01 10:29 45.06533 -99.58307 40216 ft 460 kts 250°
2026-05-01 10:30 45.01568 -99.74969 40217 ft 460 kts 250°
2026-05-01 10:31 44.97006 -99.90187 40216 ft 459 kts 250°
2026-05-01 10:32 44.93255 -100.02629 40215 ft 459 kts 250°
2026-05-01 10:33 44.88232 -100.19193 40206 ft 459 kts 250°
2026-05-01 10:34 44.84452 -100.31589 40212 ft 459 kts 250°
2026-05-01 10:34 44.81923 -100.39849 40209 ft 459 kts 250°
2026-05-01 10:35 44.78122 -100.52212 40210 ft 459 kts 250°
2026-05-01 10:35 44.75581 -100.60445 40206 ft 458 kts 250°
2026-05-01 10:36 44.71760 -100.72775 40206 ft 458 kts 250°
2026-05-01 10:37 44.69206 -100.80982 40217 ft 459 kts 250°
2026-05-01 10:37 44.65365 -100.93279 40219 ft 458 kts 250°
2026-05-01 10:38 44.62797 -101.01470 40221 ft 458 kts 250°
2026-05-01 10:38 44.60224 -101.09648 40223 ft 458 kts 250°
2026-05-01 10:39 44.57646 -101.17815 40220 ft 458 kts 250°
2026-05-01 10:39 44.55065 -101.25964 40220 ft 457 kts 250°
2026-05-01 10:40 44.52479 -101.34110 40219 ft 457 kts 249°
2026-05-01 10:40 44.49863 -101.42321 40212 ft 466 kts 250°
2026-05-01 10:41 44.47209 -101.50628 40211 ft 467 kts 250°
2026-05-01 10:42 44.43217 -101.63065 40203 ft 467 kts 250°
2026-05-01 10:42 44.40549 -101.71349 40203 ft 467 kts 250°
2026-05-01 10:43 44.37877 -101.79619 40199 ft 467 kts 250°
2026-05-01 10:43 44.35196 -101.87889 40195 ft 467 kts 250°
2026-05-01 10:44 44.32511 -101.96146 40196 ft 467 kts 250°
2026-05-01 10:44 44.29820 -102.04393 40189 ft 467 kts 249°
2026-05-01 10:45 44.27123 -102.12635 40192 ft 467 kts 249°
2026-05-01 10:45 44.24423 -102.20862 40190 ft 466 kts 249°
2026-05-01 10:46 44.21716 -102.29083 40192 ft 466 kts 249°
2026-05-01 10:46 44.19003 -102.37298 40191 ft 466 kts 249°
2026-05-01 10:47 44.16286 -102.45501 40190 ft 466 kts 249°
2026-05-01 10:47 44.13566 -102.53686 40189 ft 466 kts 249°
2026-05-01 10:48 44.10838 -102.61871 40186 ft 466 kts 249°
2026-05-01 10:48 44.08108 -102.70036 40173 ft 465 kts 249°
2026-05-01 10:49 44.05374 -102.78188 40165 ft 465 kts 249°
2026-05-01 10:49 44.02638 -102.86328 40158 ft 465 kts 249°
2026-05-01 10:50 43.99900 -102.94459 40151 ft 464 kts 249°
2026-05-01 10:50 43.97165 -103.02571 40149 ft 463 kts 249°
2026-05-01 10:51 43.94971 -103.10925 40143 ft 460 kts 256°
2026-05-01 10:51 43.92963 -103.19347 40150 ft 460 kts 255°
2026-05-01 10:52 43.90863 -103.27730 40154 ft 460 kts 254°
2026-05-01 10:52 43.88721 -103.36089 40161 ft 460 kts 254°
2026-05-01 10:53 43.86569 -103.44446 40163 ft 460 kts 254°
2026-05-01 10:53 43.84411 -103.52798 40164 ft 460 kts 254°
2026-05-01 10:54 43.82249 -103.61142 40169 ft 460 kts 254°
2026-05-01 10:54 43.80079 -103.69483 40172 ft 460 kts 254°
2026-05-01 10:55 43.77905 -103.77814 40176 ft 460 kts 253°
2026-05-01 10:55 43.75725 -103.86138 40173 ft 460 kts 253°
2026-05-01 10:56 43.73538 -103.94457 40184 ft 460 kts 253°
2026-05-01 10:56 43.71344 -104.02775 40202 ft 460 kts 253°
2026-05-01 10:57 43.69146 -104.11076 40224 ft 460 kts 253°
2026-05-01 10:57 43.66945 -104.19368 40240 ft 460 kts 253°
2026-05-01 10:58 43.64737 -104.27653 40245 ft 459 kts 253°
2026-05-01 10:58 43.62524 -104.35925 40255 ft 459 kts 253°
2026-05-01 10:59 43.60305 -104.44195 40256 ft 459 kts 253°
2026-05-01 10:59 43.58083 -104.52446 40259 ft 459 kts 253°
2026-05-01 11:00 43.55853 -104.60700 40254 ft 459 kts 253°
2026-05-01 11:00 43.53616 -104.68952 40252 ft 459 kts 253°
2026-05-01 11:01 43.51374 -104.77195 40250 ft 460 kts 253°
2026-05-01 11:01 43.49120 -104.85452 40252 ft 461 kts 253°
2026-05-01 11:02 43.46860 -104.93704 40262 ft 460 kts 252°
2026-05-01 11:02 43.44635 -105.01804 40249 ft 447 kts 252°
2026-05-01 11:03 43.42417 -105.09845 40248 ft 451 kts 252°
2026-05-01 11:03 43.40187 -105.17908 40242 ft 451 kts 252°
2026-05-01 11:04 43.37952 -105.25960 40233 ft 451 kts 252°
2026-05-01 11:04 43.35713 -105.34000 40223 ft 450 kts 252°
2026-05-01 11:05 43.33469 -105.42036 40214 ft 451 kts 252°
2026-05-01 11:05 43.31216 -105.50078 40199 ft 451 kts 252°
2026-05-01 11:06 43.28955 -105.58119 40198 ft 451 kts 252°
2026-05-01 11:06 43.26820 -105.65689 40181 ft 452 kts 251°
2026-05-01 11:07 43.23955 -105.75814 40176 ft 452 kts 251°
2026-05-01 11:07 43.23445 -105.77611 40179 ft 452 kts 251°
2026-05-01 11:08 43.21159 -105.85653 40170 ft 453 kts 251°
2026-05-01 11:09 43.17722 -105.97696 40192 ft 453 kts 251°
2026-05-01 11:09 43.15420 -106.05730 40193 ft 453 kts 251°
2026-05-01 11:10 43.11972 -106.17716 40204 ft 453 kts 251°
2026-05-01 11:10 43.09463 -106.25632 40209 ft 455 kts 246°
2026-05-01 11:11 43.06252 -106.33128 40208 ft 458 kts 239°
2026-05-01 11:11 43.02517 -106.40207 40211 ft 459 kts 237°
2026-05-01 11:12 42.98787 -106.47294 40209 ft 459 kts 237°
2026-05-01 11:12 42.95056 -106.54376 40211 ft 459 kts 237°
2026-05-01 11:13 42.91319 -106.61447 40209 ft 460 kts 237°
2026-05-01 11:13 42.87571 -106.68517 40211 ft 460 kts 237°
2026-05-01 11:14 42.84453 -106.74386 40210 ft 460 kts 237°
2026-05-01 11:14 42.80699 -106.81441 40206 ft 460 kts 237°
2026-05-01 11:15 42.76937 -106.88492 40203 ft 460 kts 237°
2026-05-01 11:15 42.73169 -106.95539 40204 ft 460 kts 237°
2026-05-01 11:16 42.69399 -107.02572 40197 ft 460 kts 237°
2026-05-01 11:16 42.65626 -107.09594 40197 ft 460 kts 237°
2026-05-01 11:17 42.61846 -107.16613 40196 ft 460 kts 237°
2026-05-01 11:17 42.58068 -107.23611 40195 ft 460 kts 237°
2026-05-01 11:18 42.54284 -107.30606 40200 ft 460 kts 237°
2026-05-01 11:18 42.50500 -107.37583 40201 ft 459 kts 237°
2026-05-01 11:19 42.46711 -107.44552 40201 ft 459 kts 237°
2026-05-01 11:19 42.42921 -107.51506 40203 ft 459 kts 237°
2026-05-01 11:20 42.39132 -107.58446 40198 ft 459 kts 237°
2026-05-01 11:20 42.35337 -107.65378 40203 ft 458 kts 237°
2026-05-01 11:21 42.31543 -107.72294 40197 ft 458 kts 237°
2026-05-01 11:21 42.27745 -107.79202 40200 ft 458 kts 237°
2026-05-01 11:22 42.23944 -107.86098 40201 ft 458 kts 237°
2026-05-01 11:22 42.20141 -107.92982 40198 ft 458 kts 237°
2026-05-01 11:23 42.16334 -107.99860 40204 ft 458 kts 236°
2026-05-01 11:23 42.12522 -108.06730 40200 ft 458 kts 236°
2026-05-01 11:24 42.08704 -108.13593 40204 ft 458 kts 236°
2026-05-01 11:25 42.02967 -108.23878 40211 ft 458 kts 236°
2026-05-01 11:25 41.97227 -108.34134 40214 ft 458 kts 236°
2026-05-01 11:26 41.91476 -108.44377 40215 ft 458 kts 236°
2026-05-01 11:27 41.87597 -108.51272 40217 ft 466 kts 236°
2026-05-01 11:27 41.83683 -108.58203 40216 ft 466 kts 236°
2026-05-01 11:28 41.79773 -108.65111 40216 ft 465 kts 236°
2026-05-01 11:28 41.75855 -108.72021 40223 ft 465 kts 236°
2026-05-01 11:29 41.69974 -108.82361 40234 ft 465 kts 235°
2026-05-01 11:30 41.64087 -108.92679 40246 ft 465 kts 235°
2026-05-01 11:30 41.60147 -108.99529 40245 ft 465 kts 234°
2026-05-01 11:31 41.55762 -109.05913 40245 ft 468 kts 227°
2026-05-01 11:31 41.51118 -109.11989 40246 ft 467 kts 227°
2026-05-01 11:32 41.46498 -109.18091 40242 ft 467 kts 227°
2026-05-01 11:32 41.41880 -109.24189 40233 ft 467 kts 227°
2026-05-01 11:33 41.37252 -109.30278 40240 ft 467 kts 227°
2026-05-01 11:33 41.32625 -109.36352 40221 ft 467 kts 227°
2026-05-01 11:34 41.28001 -109.42410 40204 ft 467 kts 227°
2026-05-01 11:34 41.23371 -109.48461 40202 ft 467 kts 227°
2026-05-01 11:35 41.18741 -109.54500 40199 ft 466 kts 227°
2026-05-01 11:35 41.14112 -109.60526 40202 ft 466 kts 227°
2026-05-01 11:36 41.09483 -109.66538 40203 ft 466 kts 227°
2026-05-01 11:36 41.04851 -109.72542 40202 ft 465 kts 227°
2026-05-01 11:37 41.00218 -109.78536 40201 ft 465 kts 227°
2026-05-01 11:37 40.95587 -109.84513 40188 ft 465 kts 227°
2026-05-01 11:38 40.90954 -109.90482 40191 ft 465 kts 227°
2026-05-01 11:38 40.86322 -109.96437 40187 ft 465 kts 227°
2026-05-01 11:39 40.81685 -110.02386 40185 ft 464 kts 227°
2026-05-01 11:39 40.77053 -110.08316 40175 ft 464 kts 227°
2026-05-01 11:40 40.72417 -110.14239 40173 ft 464 kts 227°
2026-05-01 11:40 40.67783 -110.20147 40168 ft 463 kts 227°
2026-05-01 11:41 40.63146 -110.26044 40171 ft 463 kts 227°
2026-05-01 11:41 40.58513 -110.31929 40165 ft 463 kts 227°
2026-05-01 11:42 40.53878 -110.37804 40164 ft 462 kts 227°
2026-05-01 11:42 40.49236 -110.43674 40155 ft 462 kts 227°
2026-05-01 11:43 40.44602 -110.49523 40153 ft 462 kts 227°
2026-05-01 11:43 40.39964 -110.55363 40147 ft 462 kts 227°
2026-05-01 11:44 40.33008 -110.64103 40145 ft 462 kts 227°
2026-05-01 11:44 40.28366 -110.69920 40144 ft 462 kts 227°
2026-05-01 11:45 40.23724 -110.75727 40149 ft 461 kts 227°
2026-05-01 11:45 40.19080 -110.81524 40144 ft 461 kts 227°
2026-05-01 11:46 40.14437 -110.87309 40148 ft 461 kts 227°
2026-05-01 11:46 40.09790 -110.93086 40145 ft 461 kts 227°
2026-05-01 11:47 40.05142 -110.98852 40140 ft 461 kts 227°
2026-05-01 11:47 40.00489 -111.04616 40141 ft 461 kts 227°
2026-05-01 11:48 39.95837 -111.10367 40133 ft 461 kts 227°
2026-05-01 11:48 39.91181 -111.16111 40125 ft 461 kts 227°
2026-05-01 11:49 39.86521 -111.21846 40133 ft 461 kts 227°
2026-05-01 11:49 39.81861 -111.27571 40127 ft 461 kts 227°
2026-05-01 11:50 39.77195 -111.33293 40117 ft 461 kts 227°
2026-05-01 11:50 39.72532 -111.39001 40109 ft 461 kts 227°
2026-05-01 11:51 39.67864 -111.44704 40104 ft 461 kts 227°
2026-05-01 11:51 39.63191 -111.50399 40097 ft 460 kts 227°
2026-05-01 11:52 39.58521 -111.56080 40089 ft 460 kts 227°
2026-05-01 11:52 39.53847 -111.61757 40084 ft 460 kts 227°
2026-05-01 11:53 39.49202 -111.67387 40077 ft 460 kts 227°
2026-05-01 11:53 39.44526 -111.73043 40074 ft 460 kts 227°
2026-05-01 11:54 39.39851 -111.78688 40065 ft 460 kts 227°
2026-05-01 11:54 39.35166 -111.84336 40060 ft 461 kts 227°
2026-05-01 11:55 39.30476 -111.89977 40065 ft 461 kts 227°
2026-05-01 11:55 39.25777 -111.95617 40060 ft 461 kts 227°
2026-05-01 11:56 39.21077 -112.01252 40065 ft 461 kts 227°
2026-05-01 11:56 39.16372 -112.06882 40082 ft 462 kts 227°
2026-05-01 11:57 39.12426 -112.11598 40104 ft 462 kts 227°
2026-05-01 11:57 39.07707 -112.17212 40120 ft 462 kts 227°
2026-05-01 11:58 39.02985 -112.22825 40148 ft 462 kts 227°
2026-05-01 11:59 38.95895 -112.31236 40158 ft 462 kts 227°
2026-05-01 11:59 38.91166 -112.36833 40158 ft 462 kts 226°
2026-05-01 12:00 38.84062 -112.45220 40143 ft 462 kts 226°
2026-05-01 12:01 38.76990 -112.53548 40115 ft 462 kts 226°
2026-05-01 12:01 38.72249 -112.59117 40090 ft 462 kts 226°
2026-05-01 12:02 38.67503 -112.64681 40066 ft 462 kts 227°
2026-05-01 12:02 38.62757 -112.70234 40078 ft 462 kts 227°
2026-05-01 12:03 38.58006 -112.75784 40091 ft 462 kts 227°
2026-05-01 12:03 38.53255 -112.81321 40110 ft 462 kts 227°
2026-05-01 12:04 38.48501 -112.86854 40124 ft 462 kts 227°
2026-05-01 12:04 38.43748 -112.92376 40138 ft 462 kts 227°
2026-05-01 12:05 38.38989 -112.97893 40136 ft 462 kts 227°
2026-05-01 12:05 38.31218 -113.05287 40122 ft 469 kts 217°
2026-05-01 12:06 38.25708 -113.09721 40099 ft 468 kts 217°
2026-05-01 12:06 38.20216 -113.14174 40086 ft 468 kts 218°
2026-05-01 12:07 38.14724 -113.18626 40060 ft 468 kts 218°
2026-05-01 12:07 38.09231 -113.23070 40044 ft 468 kts 218°
2026-05-01 12:08 38.03734 -113.27509 40040 ft 468 kts 218°
2026-05-01 12:08 37.98239 -113.31937 40050 ft 468 kts 218°
2026-05-01 12:09 37.92741 -113.36361 40055 ft 468 kts 218°
2026-05-01 12:09 37.87243 -113.40772 40058 ft 468 kts 218°
2026-05-01 12:10 37.78987 -113.47351 40053 ft 468 kts 218°
2026-05-01 12:11 37.70726 -113.53921 40031 ft 468 kts 218°
2026-05-01 12:11 37.65221 -113.58291 40019 ft 467 kts 218°
2026-05-01 12:12 37.59715 -113.62653 40016 ft 467 kts 218°
2026-05-01 12:12 37.54210 -113.67007 40009 ft 467 kts 218°
2026-05-01 12:13 37.48706 -113.71352 40007 ft 467 kts 218°
2026-05-01 12:13 37.43209 -113.75683 39995 ft 466 kts 218°
2026-05-01 12:14 37.37714 -113.80004 39981 ft 465 kts 218°
2026-05-01 12:14 37.32225 -113.84316 39973 ft 465 kts 218°
2026-05-01 12:15 37.26731 -113.88625 39964 ft 465 kts 218°
2026-05-01 12:15 37.21237 -113.92924 39962 ft 466 kts 218°
2026-05-01 12:16 37.15734 -113.97222 39949 ft 466 kts 218°
2026-05-01 12:16 37.10234 -114.01511 39940 ft 465 kts 218°
2026-05-01 12:17 37.04738 -114.05789 39934 ft 465 kts 218°
2026-05-01 12:17 36.99244 -114.10058 39923 ft 465 kts 219°
2026-05-01 12:18 36.93752 -114.14319 39916 ft 464 kts 219°
2026-05-01 12:18 36.88261 -114.18571 39915 ft 464 kts 219°
2026-05-01 12:19 36.82768 -114.22817 39907 ft 464 kts 219°
2026-05-01 12:19 36.77282 -114.27053 39913 ft 463 kts 219°
2026-05-01 12:20 36.71791 -114.31265 39905 ft 464 kts 219°
2026-05-01 12:20 36.66281 -114.35448 39907 ft 464 kts 219°
2026-05-01 12:21 36.60775 -114.39626 39904 ft 463 kts 219°
2026-05-01 12:21 36.55270 -114.43801 39903 ft 463 kts 219°
2026-05-01 12:22 36.49765 -114.47969 39901 ft 463 kts 219°
2026-05-01 12:22 36.44267 -114.52132 39900 ft 463 kts 219°
2026-05-01 12:23 36.38805 -114.56340 39901 ft 462 kts 220°
2026-05-01 12:23 36.33348 -114.60547 39901 ft 462 kts 220°
2026-05-01 12:24 36.27891 -114.64737 39904 ft 461 kts 219°
2026-05-01 12:24 36.22436 -114.68914 39915 ft 461 kts 219°
2026-05-01 12:25 36.14281 -114.75147 39943 ft 459 kts 220°
2026-05-01 12:26 36.08843 -114.79298 39956 ft 459 kts 220°
2026-05-01 12:26 36.00640 -114.85404 39965 ft 461 kts 216°
2026-05-01 12:27 35.91561 -114.89951 39981 ft 474 kts 207°
2026-05-01 12:28 35.82267 -114.94050 39969 ft 471 kts 208°
2026-05-01 12:29 35.73011 -114.98155 39968 ft 471 kts 208°
2026-05-01 12:29 35.63754 -115.02248 39959 ft 471 kts 208°
2026-05-01 12:30 35.54596 -115.06517 39959 ft 463 kts 214°
2026-05-01 12:31 35.49221 -115.10626 39966 ft 449 kts 226°
2026-05-01 12:31 35.44745 -115.15795 39963 ft 438 kts 235°
2026-05-01 12:32 35.40600 -115.21281 39965 ft 439 kts 235°
2026-05-01 12:32 35.34334 -115.29453 39956 ft 437 kts 234°
2026-05-01 12:33 35.30174 -115.34857 39953 ft 436 kts 234°
2026-05-01 12:33 35.26018 -115.40254 39946 ft 435 kts 234°
2026-05-01 12:34 35.21864 -115.45639 39941 ft 435 kts 234°
2026-05-01 12:34 35.17710 -115.51014 39935 ft 435 kts 234°
2026-05-01 12:35 35.13559 -115.56377 39928 ft 434 kts 234°
2026-05-01 12:35 35.09399 -115.61728 39922 ft 434 kts 234°
2026-05-01 12:36 35.05229 -115.67053 39910 ft 433 kts 234°
2026-05-01 12:36 35.01066 -115.72363 39902 ft 433 kts 234°
2026-05-01 12:37 34.96912 -115.77661 39897 ft 433 kts 234°
2026-05-01 12:37 34.92743 -115.82968 39889 ft 433 kts 234°
2026-05-01 12:38 34.89282 -115.87366 39883 ft 432 kts 234°
2026-05-01 12:38 34.85121 -115.92648 39880 ft 432 kts 234°
2026-05-01 12:39 34.80958 -115.97923 39882 ft 432 kts 234°
2026-05-01 12:39 34.76789 -116.03200 39882 ft 432 kts 234°
2026-05-01 12:40 34.72639 -116.08486 39887 ft 432 kts 234°
2026-05-01 12:40 34.68490 -116.13778 39883 ft 433 kts 234°
2026-05-01 12:41 34.64337 -116.19057 39896 ft 432 kts 234°
2026-05-01 12:41 34.60190 -116.24319 39518 ft 430 kts 234°
2026-05-01 12:42 34.58120 -116.26942 38829 ft 431 kts 234°
2026-05-01 12:42 34.56036 -116.29585 37695 ft 437 kts 234°
2026-05-01 12:42 34.53917 -116.32276 36241 ft 446 kts 234°
2026-05-01 12:42 34.51752 -116.35023 34765 ft 455 kts 233°
2026-05-01 12:43 34.49552 -116.37805 33631 ft 458 kts 233°
2026-05-01 12:43 34.47344 -116.40586 32706 ft 456 kts 233°
2026-05-01 12:43 34.45176 -116.43314 31794 ft 457 kts 233°
2026-05-01 12:43 34.43043 -116.46184 30678 ft 457 kts 238°
2026-05-01 12:44 34.41202 -116.49281 29957 ft 448 kts 244°
2026-05-01 12:44 34.39681 -116.52512 29429 ft 436 kts 249°
2026-05-01 12:44 34.37019 -116.59061 28420 ft 431 kts 249°
2026-05-01 12:45 34.34385 -116.65432 27648 ft 411 kts 249°
2026-05-01 12:45 34.33119 -116.68486 27187 ft 402 kts 249°
2026-05-01 12:45 34.31899 -116.71486 26912 ft 393 kts 250°
2026-05-01 12:46 34.30712 -116.74459 26545 ft 392 kts 250°
2026-05-01 12:46 34.29527 -116.77432 26042 ft 392 kts 250°
2026-05-01 12:46 34.28347 -116.80383 25533 ft 388 kts 250°
2026-05-01 12:46 34.27177 -116.83290 25040 ft 381 kts 249°
2026-05-01 12:47 34.26023 -116.86151 24525 ft 376 kts 249°
2026-05-01 12:47 34.24881 -116.88976 24064 ft 371 kts 249°
2026-05-01 12:47 34.23757 -116.91759 23568 ft 366 kts 249°
2026-05-01 12:47 34.22645 -116.94513 23061 ft 361 kts 249°
2026-05-01 12:48 34.21553 -116.97208 22583 ft 354 kts 249°
2026-05-01 12:48 34.20643 -116.99920 22131 ft 344 kts 257°
2026-05-01 12:48 34.19913 -117.02720 21678 ft 361 kts 257°
2026-05-01 12:48 34.19136 -117.05692 21177 ft 378 kts 257°
2026-05-01 12:49 34.18322 -117.08728 20801 ft 379 kts 256°
2026-05-01 12:49 34.17508 -117.11712 20480 ft 371 kts 256°
2026-05-01 12:49 34.16703 -117.14653 19903 ft 367 kts 256°
2026-05-01 12:49 34.15904 -117.17574 19171 ft 366 kts 256°
2026-05-01 12:50 34.15109 -117.20460 18670 ft 358 kts 256°
2026-05-01 12:50 34.14327 -117.23296 18113 ft 352 kts 256°
2026-05-01 12:50 34.13563 -117.26063 17614 ft 344 kts 256°
2026-05-01 12:50 34.12814 -117.28775 17061 ft 338 kts 256°
2026-05-01 12:51 34.12080 -117.31435 16596 ft 330 kts 256°
2026-05-01 12:51 34.11361 -117.34042 16114 ft 324 kts 255°
2026-05-01 12:51 34.09879 -117.39535 15136 ft 365 kts 256°
2026-05-01 12:52 34.09154 -117.42442 14982 ft 357 kts 256°
2026-05-01 12:52 34.07788 -117.47964 14717 ft 327 kts 256°
2026-05-01 12:52 34.07102 -117.50516 14380 ft 317 kts 252°
2026-05-01 12:53 34.05350 -117.55367 13170 ft 314 kts 249°
2026-05-01 12:53 34.04480 -117.57770 12574 ft 311 kts 249°
2026-05-01 12:53 34.03629 -117.60125 12184 ft 303 kts 249°
2026-05-01 12:54 34.02785 -117.62464 11776 ft 305 kts 248°
2026-05-01 12:54 34.01162 -117.66985 11006 ft 300 kts 249°
2026-05-01 12:54 34.00565 -117.69392 10596 ft 299 kts 260°
2026-05-01 12:55 34.00101 -117.74352 9781 ft 298 kts 264°
2026-05-01 12:55 33.99877 -117.76817 9382 ft 294 kts 264°
2026-05-01 12:55 33.99642 -117.79248 8985 ft 291 kts 264°
2026-05-01 12:56 33.99403 -117.81665 8595 ft 289 kts 264°
2026-05-01 12:56 33.99165 -117.84060 8205 ft 287 kts 264°
2026-05-01 12:56 33.98932 -117.86432 7818 ft 284 kts 264°
2026-05-01 12:56 33.98702 -117.88786 7428 ft 282 kts 264°
2026-05-01 12:57 33.98472 -117.91123 7059 ft 279 kts 264°
2026-05-01 12:57 33.98016 -117.95733 6312 ft 275 kts 264°
2026-05-01 12:57 33.97789 -117.98011 5935 ft 273 kts 264°
2026-05-01 12:58 33.97563 -118.00272 5579 ft 271 kts 264°
2026-05-01 12:58 33.97338 -118.02524 5212 ft 270 kts 264°
2026-05-01 12:58 33.97120 -118.04701 5020 ft 265 kts 264°
2026-05-01 12:59 33.96711 -118.08782 4927 ft 224 kts 265°
2026-05-01 12:59 33.96544 -118.10580 4842 ft 209 kts 265°
2026-05-01 12:59 33.96219 -118.13869 4655 ft 187 kts 265°
2026-05-01 13:00 33.95905 -118.16828 4353 ft 173 kts 265°
2026-05-01 13:00 33.95778 -118.18252 4152 ft 170 kts 266°
2026-05-01 13:01 33.95526 -118.21084 3610 ft 168 kts 265°
2026-05-01 13:01 33.95385 -118.22482 3225 ft 168 kts 264°
2026-05-01 13:01 33.95093 -118.25244 2300 ft 166 kts 262°
2026-05-01 13:02 33.94935 -118.26580 2021 ft 153 kts 261°
2026-05-01 13:07 33.93535 -118.41906 112 ft 16 kts 331°
2026-05-01 13:07 33.93636 -118.41932 112 ft 13 kts 351°
2026-05-01 13:07 33.93741 -118.41939 105 ft 17 kts 12°
2026-05-01 13:08 33.93771 -118.41861 106 ft 10 kts 80°
2026-05-01 13:08 33.93782 -118.41763 105 ft 13 kts 83°
2026-05-01 13:08 33.93794 -118.41643 105 ft 15 kts 83°
2026-05-01 13:08 33.93807 -118.41508 104 ft 17 kts 83°
2026-05-01 13:09 33.93821 -118.41373 105 ft 14 kts 83°
2026-05-01 13:09 33.93854 -118.41272 106 ft 13 kts 32°
2026-05-01 13:09 33.93959 -118.41276 102 ft 17 kts 353°
2026-05-01 13:09 33.94075 -118.41293 101 ft 16 kts 353°
2026-05-01 13:10 33.94186 -118.41309 101 ft 14 kts 353°
2026-05-01 13:10 33.94284 -118.41323 102 ft 14 kts 353°
2026-05-01 13:10 33.94372 -118.41336 101 ft 10 kts 353°
2026-05-01 13:10 33.94420 -118.41343 101 ft 4 kts 353°
2026-05-01 13:11 33.94437 -118.41361 103 ft 2 kts 301°
2026-05-01 13:11 33.94442 -118.41393 104 ft 5 kts 279°
2026-05-01 13:11 33.94438 -118.41428 103 ft 3 kts 263°
2026-05-01 13:11 33.94435 -118.41454 101 ft 3 kts 263°
2026-05-01 13:12 33.94435 -118.41457 101 ft 0 kts 263°